#timestamp,LO_Frequency,Hit,StdDev 
1542096015.8,286047004.0,Y
1542096035.6,286046999.9,P
1542096055.5,286046999.7,N
1542096075.3,286047002.4,N
1542096095.1,286047000.1,N
1542096115.9,286047000.0,N
1542096135.7,286046999.9,N
1542096155.6,286047002.4,N
1542096175.4,286047001.4,N
1542096195.2,286047001.6,N
1542096215.1,286046999.7,N
1542096216.0,286046999.7,N
1542096235.8,286047002.5,N
1542096255.7,286047003.9,Y
1542096275.5,286047002.8,P
1542096295.3,286047002.0,N
1542096315.2,286047003.1,P
1542096335.0,286047005.4,Y
1542096335.9,286047005.4,P
1542096355.7,286047003.1,N
1542096375.6,286047005.8,P
1542096395.4,286047005.1,Y
1542096415.3,286046999.8,P
1542096435.1,286046998.2,N
1542096455.8,286047001.0,N
1542096475.7,286047001.0,N
1542096495.5,286047000.3,N
1542096515.4,286046998.1,N
1542096535.2,286046998.3,N
1542096555.0,286046997.0,N
1542096555.9,286046997.0,N
1542096575.8,286046999.2,N
1542096595.6,286047001.0,N
1542096615.4,286046998.3,N
1542096635.3,286046998.6,N
1542096655.1,286047000.2,N
1542096675.9,286047000.7,N
1542096695.7,286047002.0,N
1542096715.5,286047001.9,N
1542096735.4,286047001.7,N
1542096755.2,286047004.0,N
1542096775.0,286047001.6,N
1542096775.9,286047001.6,N
1542096795.8,286047001.9,N
1542096815.6,286047004.3,N
1542096835.5,286047001.8,N
1542096855.3,286047002.5,N
1542096875.1,286047003.1,N
1542096895.9,286047003.3,N
1542096915.7,286047003.1,N
1542096935.5,286047005.9,N
1542096955.4,286047004.6,N
1542096975.2,286047007.5,Y
1542096995.1,286047005.4,P
1542096996.0,286047005.4,N
1542097015.8,286047004.6,N
1542097035.6,286047005.2,N
1542097055.5,286047005.1,Y
1542097075.3,286047002.1,P
1542097095.2,286047000.3,N
1542097115.9,286047000.5,N
1542097135.7,286047004.1,N
1542097155.6,286047001.3,N
1542097175.4,286047004.3,N
1542097195.2,286047001.5,N
1542097215.1,286047002.0,N
1542097216.0,286047002.0,N
1542097235.8,286047004.1,N
1542097255.7,286047006.0,Y
1542097275.5,286047000.9,P
1542097295.3,286047002.1,N
1542097315.2,286047004.2,P
1542097335.0,286047003.9,Y
1542097335.9,286047003.9,P
1542097355.8,286047001.2,N
1542097375.6,286046998.5,N
1542097395.4,286047000.8,N
1542097415.3,286047000.9,N
1542097435.1,286046998.2,N
1542097455.9,286047000.6,N
1542097475.7,286047000.7,N
1542097495.5,286046999.8,N
1542097515.4,286047001.9,N
1542097535.2,286047004.4,N
1542097555.0,286047001.3,N
1542097555.9,286047001.3,N
1542097575.8,286047000.2,N
1542097595.6,286047000.1,N
1542097615.5,286047002.2,N
1542097635.3,286046998.1,N
1542097655.1,286047002.8,N
1542097675.9,286046999.8,N
1542097695.7,286047000.9,N
1542097715.5,286047000.6,N
1542097735.4,286047002.0,N
1542097755.2,286047002.7,N
1542097775.1,286047002.4,N
1542097776.0,286047002.4,N
1542097795.8,286047002.3,N
1542097815.6,286047002.4,N
1542097835.5,286047003.5,N
1542097855.3,286047005.8,Y
1542097875.1,286047001.3,P
1542097895.9,286047002.3,P
1542097915.7,286047000.4,N
1542097935.6,286047000.4,N
1542097955.4,286047000.3,N
1542097975.2,286047001.0,N
1542097995.1,286047000.3,N
1542097996.0,286047000.3,N
1542098015.8,286046998.6,N
1542098035.6,286046998.7,N
1542098055.5,286046998.4,N
1542098075.3,286046998.2,N
1542098095.2,286047000.5,N
1542098115.9,286047000.5,N
1542098135.7,286046999.9,N
1542098155.6,286047001.0,N
1542098175.4,286046998.2,N
1542098195.2,286047000.4,N
1542098215.1,286046998.1,N
1542098216.0,286046998.1,N
1542098235.8,286047000.6,N
1542098255.7,286047000.3,N
1542098275.5,286046999.8,N
1542098295.3,286046998.4,N
1542098315.2,286046996.7,N
1542098335.0,286046999.5,N
1542098335.9,286046999.5,N
1542098355.8,286046998.1,N
1542098375.6,286047000.8,N
1542098395.4,286047001.1,N
1542098415.3,286046998.1,N
1542098435.1,286047000.1,N
1542098455.8,286047000.6,N
1542098475.7,286046998.9,N
1542098495.5,286047002.8,N
1542098515.4,286047000.6,N
1542098535.2,286046999.2,N
1542098555.0,286046996.5,N
1542098555.9,286046996.5,N
1542098575.8,286046996.9,N
1542098595.6,286046999.2,N
1542098615.5,286046997.3,N
1542098635.3,286046997.8,N
1542098655.1,286046995.4,N
1542098675.9,286046996.8,N
1542098695.7,286046995.0,N
1542098715.5,286046996.0,N
1542098735.4,286046994.4,Y
1542098755.2,286046995.4,P
1542098775.1,286046995.3,N
1542098776.0,286046995.3,P
1542098795.8,286046993.5,Y
1542098815.6,286046999.1,P
1542098835.5,286046997.7,N
1542098855.3,286046996.8,N
1542098875.1,286046999.5,N
1542098895.9,286046996.6,N
1542098915.7,286046996.8,N
1542098935.6,286046997.1,N
1542098955.4,286046997.9,N
1542098975.2,286046997.6,N
1542098995.1,286046996.8,Y
1542098996.0,286046996.8,P
1542099015.8,286047001.0,N
1542099035.7,286047001.0,N
1542099055.5,286047002.8,N
1542099075.3,286046998.7,N
1542099095.2,286046999.2,N
1542099115.0,286046997.0,N
1542099115.9,286046997.0,N
1542099135.7,286046999.4,N
1542099155.6,286046999.0,N
1542099175.4,286046999.2,N
1542099195.3,286046997.2,N
1542099215.1,286046996.5,N
1542099216.0,286046996.5,N
1542099235.8,286046995.2,N
1542099255.7,286046997.7,N
1542099275.5,286046997.7,N
1542099295.3,286046996.1,N
1542099315.2,286046995.6,N
1542099335.0,286046995.5,N
1542099335.9,286046995.5,N
1542099355.8,286046996.4,N
1542099375.6,286046996.2,N
1542099395.4,286046995.6,N
1542099415.3,286046996.0,N
1542099435.1,286046993.5,Y
1542099455.9,286046996.1,P
1542099475.7,286046995.0,P
1542099495.5,286046995.0,P
1542099515.4,286046996.1,Y
1542099535.2,286047000.3,P
1542099555.1,286047000.9,N
1542099556.0,286047000.9,N
1542099575.8,286046999.4,N
1542099595.6,286046999.4,N
